Weather History for Marrakech, Morocco

Change the Weather History Date:

Tuesday, May 14, 2013

  Actual Average Record
Temperature  
Mean Temperature 74 °F -  
Max Temperature 89 °F 85 °F 108 °F (2014)
Min Temperature 60 °F 60 °F 55 °F (1997)
Cooling Degree Days 10    
Growing Degree Days 24 (Base 50)    
Moisture  
Dew Point 55 °F    
Average Humidity 63    
Maximum Humidity 100    
Minimum Humidity 30    
Precipitation  
Precipitation 0.00 in 0.02 in - ()
Sea Level Pressure  
Sea Level Pressure 29.96 in    
Wind  
Wind Speed 9 mph ()    
Max Wind Speed 14 mph    
Max Gust Speed -    
Visibility 5.1 miles    
Events      
Averages and records for this station are not official NWS values.
T = Trace of Precipitation, MM = Missing Value Source: Averaged Metar Reports

Daily Weather History Graph

Daily Weather History Graph

Search for Another Location

Airport:

Trip Planner

Search our weather history database for the weather conditions in past years. The results will help you decide how hot, cold, wet, or windy it might be!

Date:

Astronomy

May. 14, 2013 Rise Set
Actual Time 6:36 AM WEST 8:21 PM WEST
Civil Twilight 6:09 AM WEST 8:47 PM WEST
Nautical Twilight 5:37 AM WEST 9:20 PM WEST
Astronomical Twilight 5:03 AM WEST 9:54 PM WEST
Moon 10:03 AM WEST (5/14) No Moon Set
Length of Visible Light 14h 38m
Length of Day
13h 44m
Waxing Crescent, 17% of the Moon is Illuminated
May 14
Waxing Crescent
May 18
First Quarter
May 25
Full
May 31
Last Quarter
Jun 8
New

Hourly Weather History & Observations

Time (WEST) Temp. Dew Point Humidity Pressure Visibility Wind Dir Wind Speed Gust Speed Precip Events Conditions
12:00 AM 73.4 °F 59.0 °F 61% 30.01 in 6.2 mi WSW 10.4 mph - N/A   Mostly Cloudy
12:30 AM 71.6 °F 59.0 °F 64% 30.01 in 6.2 mi WSW 6.9 mph - N/A   Mostly Cloudy
1:00 AM 71 °F 58 °F 53% 29.95 in 6 mi West 6.9 mph - -   Partly Cloudy
1:00 AM 71.6 °F 57.2 °F 60% 30.01 in 6.2 mi West 6.9 mph - N/A   Scattered Clouds
2:00 AM 69.8 °F 57.2 °F 64% 29.98 in 6.2 mi West 10.4 mph - N/A   Scattered Clouds
3:00 AM 66.2 °F 59.0 °F 78% 29.98 in 6.2 mi West 11.5 mph - N/A   Scattered Clouds
4:00 AM 64 °F 59 °F 79% 29.93 in 6 mi West 10.4 mph - -   Partly Cloudy
4:00 AM 64.4 °F 59.0 °F 83% 29.95 in 6.2 mi West 10.4 mph - N/A   Scattered Clouds
5:30 AM 62.6 °F 59.0 °F 88% 29.98 in 6.2 mi WSW 11.5 mph - N/A   Scattered Clouds
6:00 AM 62.6 °F 59.0 °F 88% 29.98 in 5.0 mi West 12.7 mph - N/A   Scattered Clouds
6:30 AM 60.8 °F 60.8 °F 100% 29.98 in 3.7 mi West 11.5 mph - N/A   Scattered Clouds
7:00 AM 61 °F 60 °F 94% 29.96 in 3 mi West 12.7 mph - -   Partly Cloudy
7:00 AM 60.8 °F 59.0 °F 94% 29.98 in 3.1 mi West 12.7 mph - N/A   Mostly Cloudy
7:30 AM 60.8 °F 59.0 °F 94% 30.01 in 3.1 mi West 13.8 mph - N/A   Mostly Cloudy
8:00 AM 60.8 °F 59.0 °F 94% 30.01 in 3.1 mi West 12.7 mph - N/A   Mostly Cloudy
8:30 AM 62.6 °F 59.0 °F 88% 30.01 in 3.1 mi WNW 8.1 mph - N/A   Mostly Cloudy
9:00 AM 62.6 °F 57.2 °F 82% 30.01 in 3.1 mi WNW 10.4 mph - N/A   Mostly Cloudy
9:30 AM 62.6 °F 57.2 °F 82% 30.01 in 3.1 mi WNW 8.1 mph - N/A   Mostly Cloudy
9:46 AM 62 °F 58 °F 81% 29.99 in 3 mi West 9.2 mph - -   Partly Cloudy
10:00 AM 62.6 °F 57.2 °F 82% 30.01 in 3.1 mi West 9.2 mph - N/A   Mostly Cloudy
10:30 AM 62.6 °F 59.0 °F 88% 30.01 in 3.1 mi West 8.1 mph - N/A   Mostly Cloudy
11:00 AM 64.4 °F 57.2 °F 77% 30.01 in 3.1 mi SSW 5.8 mph - N/A   Mostly Cloudy
11:30 AM 68.0 °F 57.2 °F 68% 30.01 in 3.1 mi SW 6.9 mph - N/A   Mostly Cloudy
12:00 PM 69.8 °F 55.4 °F 60% 30.01 in 3.1 mi West 3.5 mph - N/A   Mostly Cloudy
1:00 PM 71 °F 55 °F 47% 29.94 in 4 mi WSW 4.6 mph - -   Partly Cloudy
1:00 PM 71.6 °F 55.4 °F 57% 30.01 in 3.7 mi WSW 4.6 mph - N/A   Mostly Cloudy
1:30 PM 73.4 °F 55.4 °F 53% 30.01 in 3.7 mi NW 4.6 mph - N/A   Scattered Clouds
2:00 PM 75.2 °F 53.6 °F 47% 29.98 in 6.2 mi WNW 5.8 mph - N/A   Scattered Clouds
2:30 PM 75.2 °F 51.8 °F 44% 29.98 in 6.2 mi West 5.8 mph - N/A   Scattered Clouds
3:00 PM 75.2 °F 51.8 °F 44% 29.98 in 6.2 mi WNW 4.6 mph - N/A   Scattered Clouds
4:00 PM 77 °F 52 °F 31% 29.87 in 6 mi WNW 8.1 mph - -   Partly Cloudy
4:00 PM 77.0 °F 51.8 °F 41% 29.95 in 6.2 mi WNW 8.1 mph - N/A   Mostly Cloudy
4:30 PM 78.8 °F 50.0 °F 36% 29.95 in 6.2 mi NW 9.2 mph - N/A   Mostly Cloudy
5:00 PM 78.8 °F 50.0 °F 36% 29.92 in 6.2 mi West 9.2 mph - N/A   Mostly Cloudy
5:30 PM 78.8 °F 51.8 °F 39% 29.92 in 6.2 mi West 10.4 mph - N/A   Mostly Cloudy
6:00 PM 77.0 °F 51.8 °F 41% 29.92 in 6.2 mi WNW 12.7 mph - N/A   Mostly Cloudy
6:30 PM 77.0 °F 50.0 °F 39% 29.89 in 6.2 mi West 10.4 mph - N/A   Mostly Cloudy
7:00 PM 76 °F 51 °F 30% 29.83 in 6 mi West 11.5 mph - -   Mostly Cloudy
7:00 PM 77.0 °F 50.0 °F 39% 29.89 in 6.2 mi West 11.5 mph - N/A   Mostly Cloudy
7:30 PM 77.0 °F 51.8 °F 41% 29.89 in 6.2 mi WNW 11.5 mph - N/A   Mostly Cloudy
8:00 PM 73.4 °F 51.8 °F 47% 29.89 in 6.2 mi NNW 10.4 mph - N/A   Mostly Cloudy
8:30 PM 71.6 °F 51.8 °F 50% 29.92 in 6.2 mi NW 12.7 mph - N/A   Scattered Clouds
9:00 PM 69.8 °F 51.8 °F 53% 29.92 in 6.2 mi NW 11.5 mph - N/A   Scattered Clouds
9:30 PM 68.0 °F 50.0 °F 52% 29.92 in 6.2 mi NW 13.8 mph - N/A   Scattered Clouds
10:00 PM 67 °F 53 °F 50% 29.90 in 6 mi NW 11.5 mph - -   Scattered Clouds
10:00 PM 66.2 °F 51.8 °F 60% 29.95 in 6.2 mi NW 11.5 mph - N/A   Scattered Clouds
10:30 PM 66.2 °F 51.8 °F 60% 29.95 in 6.2 mi NW 10.4 mph - N/A   Scattered Clouds
11:00 PM 64.4 °F 51.8 °F 64% 29.95 in 6.2 mi NW 9.2 mph - N/A   Scattered Clouds
11:30 PM 64.4 °F 51.8 °F 64% 29.98 in 6.2 mi NNW 9.2 mph - N/A   Mostly Cloudy